Location: Buckland
(65.9785°N, 161.1281°W)
Time: 10:24:18
(UTC+00:00)

SPROUT - Visible Passes

Search period start: 17 January 2021 00:00
Search period end: 27 January 2021 00:00
Orbit: 597 x 610 km, 97.9° (Epoch: 17 January)

Date Brightness Start Highest point End Pass type
(mag) Time Alt. Az. Time Alt. Az. Time Alt. Az.
17 Jan ? 03:40:10 10° N 03:42:31 15° NNW 03:44:51 10° WNW visible
17 Jan ? 05:16:47 10° N 05:16:49 10° N 05:16:50 10° N visible
17 Jan ? 06:52:38 10° N 06:52:38 10° N 06:52:46 10° N visible
18 Jan ? 03:52:28 10° N 03:54:35 14° NNW 03:56:42 10° NW visible
18 Jan ? 07:04:57 10° N 07:04:57 10° N 07:05:04 10° N visible
19 Jan ? 04:04:47 10° N 04:06:40 13° NNW 04:08:31 10° NW visible
19 Jan ? 07:17:16 10° N 07:17:16 10° N 07:17:23 10° N visible
20 Jan ? 02:40:48 10° N 02:44:09 23° NW 02:47:30 10° W visible
20 Jan ? 04:17:06 10° N 04:18:43 12° NNW 04:20:21 10° NW visible
20 Jan ? 05:52:46 10° N 05:52:57 10° N 05:53:17 10° N visible
20 Jan ? 07:29:35 10° N 07:29:35 10° N 07:29:42 10° N visible
21 Jan ? 02:53:06 10° N 02:56:16 21° NW 02:59:26 10° W visible
21 Jan ? 04:29:25 10° N 04:30:46 11° NNW 04:32:08 10° NW visible
21 Jan ? 06:05:05 10° N 06:05:05 10° N 06:05:40 10° N visible
21 Jan ? 07:41:54 10° N 07:41:54 10° N 07:42:01 10° N visible
22 Jan ? 03:05:24 10° N 03:08:22 19° NW 03:11:21 10° W visible
22 Jan ? 04:41:43 10° N 04:42:49 11° NNW 04:43:55 10° NNW visible
22 Jan ? 06:17:23 11° N 06:17:23 11° N 06:18:00 10° N visible
22 Jan ? 07:54:12 10° N 07:54:12 10° N 07:54:19 10° N visible
23 Jan ? 03:17:42 10° N 03:20:29 17° NNW 03:23:15 10° WNW visible
23 Jan ? 04:54:01 10° N 04:54:52 10° N 04:55:41 10° NNW visible
23 Jan ? 06:29:41 11° N 06:29:41 11° N 06:30:19 10° N visible
23 Jan ? 08:06:31 10° N 08:06:31 10° N 08:06:37 10° N visible
24 Jan ? 03:30:00 10° N 03:32:34 16° NNW 03:35:07 10° WNW visible
24 Jan ? 05:06:21 10° N 05:06:54 10° N 05:07:27 10° NNW visible
24 Jan ? 06:41:59 11° N 06:41:59 11° N 06:42:38 10° N visible
24 Jan ? 08:18:49 10° N 08:18:49 10° N 08:18:55 10° N visible
25 Jan ? 03:42:18 10° N 03:44:38 15° NNW 03:46:58 10° WNW visible
25 Jan ? 05:18:40 10° N 05:18:56 10° N 05:19:12 10° N visible
25 Jan ? 06:54:17 11° N 06:54:17 11° N 06:54:56 10° N visible
25 Jan ? 08:31:07 11° N 08:31:07 11° N 08:31:13 10° N visible
26 Jan ? 03:54:36 10° N 03:56:42 13° NNW 03:58:48 10° NW visible
26 Jan ? 07:06:35 12° N 07:06:35 12° N 07:07:15 10° N visible
26 Jan ? 08:43:24 10° N 08:43:24 10° N 08:43:31 10° NNW visible
